Timeline UpdatesTrip UpdatesNews PostsPvt PostsTravel TipsAdmin PostsConv PostsFollowed PostsChat RequestsBlog PostsPNR Posts

Disclaimer
Search
 
 
Fri Jul 25, 2014 01:31:43 ISTHomeTrainsΣChainsAtlasPNRForumGalleryNewsFAQTripsMembersLoginFeedback
Latest...
.
Mon Jun 30, 2014 (08:03PM)
⇐ Return Journey: Train# 12322

12321/Howrah - Mumbai CST Mail (via Allahabad)

Dec 01 2013 (3:46PM)
Change Departure Station:
Change Arrival Station:
Post a Train Travel TipPost a Train Travel Tip **new
Post a Comment/Question/Picture/VideoPost a Comment/Question/Picture/Video
Pantry/Catering
✓ Pantry Car Avbl
✓ Catering Avbl
Loco/Rake Reversals
ALD/Allahabad Junction (10);
RSA - Rake Sharing
No RSA.
Rake/Coach Composition
LOCO-SLR-GEN(ONLY FOR MILITARY)-GEN-S1-S2-S3-S4-S5-S6-S7-S8-S9-S10-S11-PC-B1-B2-B3-A1-HA1-GEN-SLR.
Loco
#WAP/M 4 HWH/MGS Shed Till ALD ,#WDP 4/B ET Shed(From...
Read more...
ALD-ET)#WAP 4 ET/BSL Shed Till IGP & From IGP #WCAM 3/2P KYN Shed...Author: Ashish tiwari Entry# 333315
News    PNR    Forum    Time-Table    Availability    Fare Chart    Map    Arr/Dep History    Trips    Gallery    ΣChains    X/O    Timeline    
Travel Time: 3h 55m    3 halts    Distance: 180 km    Avg Speed: 45 km/hr
Type: SuperFast
Zone: ER/Eastern
Departs @ 07:30
Platform# 2
SMTWTFS
Devlali/DVL 
Arrives @ 11:25
Platform# 18
SMTWTFS
Mumbai CST/CSTM 

3 halts. 44 intermediate Stations between Devlali and Mumbai CST

Show ALL intermediate Stations  Show Old Time-Table

#CodeStation NameX/OArrivesAvgDepartsAvgHaltPFDay#KmSpeedElevZoneAddress
1HWHKolkata Howrah Junction (23)  -22:00-91-1996.68310mERHowrah 711101, West Bengal
2BWNBarddhaman Junction (8)  23:08-23:13-5m--1-1902.28034mERDist - Barddhaman, West Bengal
3PANPanagarh (4)X  23:49-23:50-1m--1-1854.36270mERKaksa, West Bengal
4DGRDurgapur (5)X  00:05-00:07-2m32-1838.78171mERDurgapur, West Bengal
5RNGRaniGanj (4)X  00:25-00:26-1m--2-1814.46092mERRaniganj, West Bengal
6ASNAsansol Junction (7)X  00:44-00:49-5m--2-1796.261113mERDist - bardhaman, West Bengal
7BRRBarakar (2)  01:06-01:07-1m--2-1779.042129mERDist. Bardhaman, West Bengal
8DHNDhanbad Junction (8)  02:05-02:10-5m32-1738.171235mECR2319801. Div. HQ ECR, Jharkhand
9GMONetaji SC Bose Gomoh Junction (6)X  02:35-02:45-10m22-1708.383239mECRGomoh, Jharkhand
10PNMEParasnath (5)X  02:58-02:59-1m32-1690.274282mECRGiridih 06532-233419, Jharkhand
11HZDHazaribagh Road (3)  03:21-03:22-1m--2-1663.185330mECRHazaribagh, Jharkhand
12KQRKoderma Junction (7)  03:56-03:57-1m--2-1614.854399mECR06534-222410 Koderma, Jharkhand
13GAYAGaya Junction (9)  05:22-05:27-5m12-1538.484117mECR0631-2220283, Bihar
14AUBRAnugraha Narayan Road (4)O  06:16-06:17-1m--2-1470.043104mECR06186-285271, Bihar
15DOSDehri On Sone (6)  06:40-06:42-2m--2-1453.476114mECRRohtas(06184-253154), Bihar
16SSMSasaram Junction (4)X  06:56-06:57-1m--2-1435.877111mECR06184-222051, Bihar
17BBUBhabua Road (4)X  07:34-07:35-1m--2-1388.27880mECR06187-222222, Bihar
18MGSMughal Sarai Junction (8)X  08:17-08:27-10m42-1333.65683mECRMughalsarai 232101, Uttar Pradesh
19CARChunar Junction (5)  09:01-09:02-1m22-1301.75985mNCRChunar Junction, Uttar Pradesh
20MZPMirzapur (3)X  09:34-09:35-1m--2-1270.44988mNCRMirzapur, Uttar Pradesh
21BDLVindhyachal (3)X  09:44-09:45-1m--2-1263.16088mNCRMirzapur, Uttar Pradesh
22ALDAllahabad Junction (10)X↵¶11:07-11:27-20m62-1180.912100mNCRAllahabad 211003, Uttar Pradesh
23NYNNaini Junction (4)  12:02-12:04-2m32-1173.88398mNCRAllahabad, Uttar Pradesh
24SRJShankargarh (3)  12:31-12:32-1m--2-1136.457132mNCRShankargarh, Uttar Pradesh
25MKPManikpur Junction (4)X  13:30-13:35-5m--2-1081.462250mNCRManikpur, Uttar Pradesh
26STASatna Junction (3)X  14:50-15:00-10m12-1003.692322mWCRSatna, Madhya Pradesh
27MYRMaihar (3)X  15:23-15:25-2m--2-968.376353mWCRMaihar Railway Station, Madhya Pradesh
28KTEKatni Junction (6)XO  16:15-16:20-5m42-905.364387mWCRKatni, Madhya Pradesh
29JBPJabalpur Junction (4)X  17:45-17:55-10m12-814.780416mWCRJabalpur, Madhya Pradesh
30SRIDShridham (3)  18:35-18:36-1m32-761.455373mWCRShridham, Madhya Pradesh
31NUNarsinghpur (2)X  19:10-19:12-2m22-730.470365mWCRNarsimhapur, Madhya Pradesh
32KYKareli (2)X  19:26-19:27-1m22-714.088361mWCRKareli, Madhya Pradesh
33GARGadarwara (2)X  19:46-19:47-1m22-686.169352mWCRNarsinghpur, Madhya Pradesh
34PPIPipariya (3)  20:30-20:32-2m22-636.739338mWCRPiparia, Madhya Pradesh
35ETItarsi Junction (7)X22:15-22:25-10m--2-569.589329mWCRItarsi 461111, Madhya Pradesh
36HDHarda (3)  23:16-23:17-1m--2-493.763289mWCRHarda, Madhya Pradesh
37KNWKhandwa Junction (5)X  01:00-01:05-5m--3-386.075310mCRKhandwa, Madhya Pradesh
38NPNRNepanagar (2)X  01:39-01:40-1m--3-343.466289mCRState Highway 27, Madhya Pradesh
39BAUBurhanpur (2)  02:04-02:05-1m13-317.273269mCRBurhanpur, Madhya Pradesh
40BSLBhusaval Junction (8)X  02:50-03:00-10m33-262.760208mCRBhusaval 425201, Maharashtra
41JLJalgaon Junction (4)  03:24-03:25-1m23-238.694213mCRJalgaon 425001, Maharashtra
42CSNChalisgaon Junction (3)X  04:24-04:25-1m--3-146.058352mCRChalisgaon 424101, Maharashtra
43MMRManmad Junction (6)  05:35-05:40-5m33-78.544580mCRManmad 423104, Maharashtra
44NKNasik Road (3)  07:19-07:20-1m33-5.738563mCRNashik 422101, Maharashtra
45DVL»Devlali (3)»  07:29-07:30-1m230.050561mCRDist. Nashik 422401, Maharashtra
46IGPIgatpuri (4)X08:24-08:25-1m--344.945589mCRIgatpuri 422403, Maharashtra
47KYNKalyan Junction (8)  10:15-10:20-5m63126.76810mCRKalyan 421301, Maharashtra
48DRMumbai Dadar Central (8)  10:59-11:00-1m63171.2217mCRMumbai 400014, Maharashtra
49CSTM•Mumbai CST (18)•  11:25--183179.8-10mCRMumbai 400001, Maharashtra
Scroll to Top
Scroll to Bottom